Location: Unspecified
(0.0000°N, 0.0000°E)
Time: 16:16:59
(UTC+00:00)

Explorer 7 - Pass Details

Date: 22 November 2019
Orbit: 485 x 680 km, 50.3° (Epoch: 13 December)

Event Time Altitude Azimuth Distance (km) Brightness Sun altitude
Rises 18:11:58 0° 182° (S) 2,978 10.9 -6.1°
Reaches altitude 10° 18:15:47 10° 151° (SSE) 2,092 9.7 -7.0°
Maximum altitude 18:17:41 12° 128° (SE) 1,957 9.3 -7.4°
Drops below altitude 10° 18:19:36 10° 105° (ESE) 2,106 9.3 -7.8°
Enters shadow 18:20:45 - 93° (E) 2,313 9.4 -8.1°
Sets 18:23:27 0° 75° (ENE) 3,021 - -8.7°
